Simultaneous Nadir Overpasses (SNOs) Predictions

Prediction of SNOs between METOP-B and NOAA-19 Satellite Orbit:

Table of predicted SNOs for the next 14.0 days since TLE Epoch: 11/20/2021
Index Date (METOP-B) Time (METOP-B) Lat,Lon (METOP-B) SZA (METOP-B ) Date (NOAA-19) Time (NOAA-19) Lat,Lon (NOAA-19) SZA (NOAA-19 ) Distance(km) Time Diff (sec)
1 11/25/2021 08:47:36 80.69, 78.98 102.99 11/25/2021 08:46:29 80.70, 79.10 102.98 2.22 67
2 11/25/2021 09:38:17 -80.69,-113.67 77.00 11/25/2021 09:37:33 -80.70,-113.67 77.02 0.64 44
3 11/25/2021 10:28:57 80.70, 53.84 103.03 11/25/2021 10:28:29 80.70, 53.66 103.00 3.31 28
4 11/25/2021 11:19:39 -80.68,-139.15 77.01 11/25/2021 11:19:33 -80.70,-139.10 77.00 1.65 6
5 11/25/2021 12:10:19 80.69, 28.35 103.02 11/25/2021 12:10:29 80.69, 28.23 103.02 2.32 10
6 11/25/2021 13:01:00 -80.70,-164.29 76.97 11/25/2021 13:01:32 -80.68,-164.18 76.96 2.56 32
7 11/25/2021 13:51:41 80.69, 2.87 103.02 11/25/2021 13:52:29 80.69, 2.79 103.03 1.64 48



Historial Predications of SNOs between METOP-B and NOAA-19
